When you browse on this site, cookies collect data to enhance your experience and personalize the content and advertising you see.
Visit our Privacy Policy to learn more. By continuing to use the site, you agree to this use of cookies and data.
  • In Deutschland
  • Länderverzeichnis
  • Für 7 Tage
  • Wassertemperatur
  • Wetterkarte
  • Widgets
  • user-avatar
    Anmelden

    Stündliche Wetter Sölden

    Heute, 11 Dezember, Mittwoch

    Zeit Temperatur Niederschläge Wind Luftdruck Luftfeuchtigkeit
    00:00 -13°C° 0 mm 2 m/S 579 mmHg 41%
    01:00 -10°C° 0 mm 1 m/S 579 mmHg 35%
    02:00 -10°C° 0 mm 1 m/S 578 mmHg 35%
    03:00 -10°C° 0 mm 1 m/S 578 mmHg 34%
    04:00 -9°C° 0 mm 1 m/S 578 mmHg 33%
    05:00 -9°C° 0 mm 1 m/S 577 mmHg 33%
    06:00 -9°C° 0 mm 1 m/S 577 mmHg 33%
    07:00 -9°C° 0 mm 1 m/S 577 mmHg 33%
    08:00 -7°C° 0 mm 1 m/S 577 mmHg 36%
    09:00 -6°C° 0 mm 1 m/S 578 mmHg 39%
    10:00 -5°C° 0 mm 0 m/S 578 mmHg 42%
    11:00 -4°C° 0 mm 0 m/S 578 mmHg 46%
    12:00 -3°C° 0 mm 0 m/S 577 mmHg 50%
    13:00 -2°C° 0 mm 1 m/S 577 mmHg 53%
    14:00 -3°C° 0 mm 1 m/S 576 mmHg 53%
    15:00 -5°C° 0 mm 0 m/S 575 mmHg 53%
    16:00 -7°C° 0 mm 0 m/S 574 mmHg 53%
    17:00 -7°C° 0 mm 0 m/S 573 mmHg 51%
    18:00 -7°C° 0 mm 0 m/S 573 mmHg 49%
    19:00 -8°C° 0 mm 1 m/S 573 mmHg 47%
    20:00 -8°C° 0 mm 1 m/S 573 mmHg 47%
    21:00 -8°C° 0 mm 0 m/S 572 mmHg 47%
    22:00 -8°C° 0 mm 0 m/S 572 mmHg 46%
    23:00 -8°C° 0 mm 0 m/S 572 mmHg 48%

    Morgen, 12 Dezember, Donnerstag

    Zeit Temperatur Niederschläge Wind Luftdruck Luftfeuchtigkeit
    00:00 -8°C° 0 mm 0 m/S 572 mmHg 49%
    01:00 -9°C° 0 mm 0 m/S 571 mmHg 50%
    02:00 -9°C° 0 mm 0 m/S 571 mmHg 52%
    03:00 -9°C° 0 mm 0 m/S 571 mmHg 54%
    04:00 -9°C° 0 mm 1 m/S 570 mmHg 56%
    05:00 -9°C° 0.1 mm 1 m/S 570 mmHg 60%
    06:00 -9°C° 0.1 mm 1 m/S 571 mmHg 64%
    07:00 -9°C° 0.1 mm 1 m/S 571 mmHg 68%
    08:00 -8°C° 0.3 mm 1 m/S 571 mmHg 71%
    09:00 -8°C° 0.3 mm 1 m/S 571 mmHg 74%
    10:00 -8°C° 0.3 mm 1 m/S 571 mmHg 76%
    11:00 -7°C° 0.1 mm 1 m/S 571 mmHg 78%
    12:00 -7°C° 0.1 mm 1 m/S 571 mmHg 79%
    13:00 -7°C° 0.1 mm 1 m/S 571 mmHg 80%
    14:00 -7°C° 0.1 mm 1 m/S 570 mmHg 83%
    15:00 -8°C° 0.1 mm 1 m/S 570 mmHg 85%
    16:00 -8°C° 0.1 mm 1 m/S 569 mmHg 88%
    17:00 -9°C° 0 mm 0 m/S 569 mmHg 88%
    18:00 -10°C° 0 mm 0 m/S 568 mmHg 88%
    19:00 -11°C° 0 mm 0 m/S 568 mmHg 87%
    20:00 -11°C° 0 mm 1 m/S 567 mmHg 87%
    21:00 -12°C° 0 mm 1 m/S 567 mmHg 87%
    22:00 -12°C° 0 mm 1 m/S 566 mmHg 87%
    23:00 -12°C° 0 mm 1 m/S 566 mmHg 88%

    übermorgen, 13 Dezember, Freitag

    Zeit Temperatur Niederschläge Wind Luftdruck Luftfeuchtigkeit
    00:00 -12°C° 0 mm 1 m/S 565 mmHg 89%
    01:00 -12°C° 0 mm 1 m/S 565 mmHg 90%
    02:00 -12°C° 0.1 mm 1 m/S 564 mmHg 91%
    03:00 -12°C° 0.1 mm 1 m/S 564 mmHg 92%
    04:00 -12°C° 0.1 mm 1 m/S 563 mmHg 92%
    05:00 -12°C° 0.1 mm 1 m/S 562 mmHg 92%
    06:00 -12°C° 0.1 mm 1 m/S 562 mmHg 92%
    07:00 -12°C° 0.1 mm 1 m/S 561 mmHg 93%
    08:00 -11°C° 0.1 mm 1 m/S 561 mmHg 91%
    09:00 -11°C° 0.1 mm 1 m/S 561 mmHg 90%
    10:00 -10°C° 0.1 mm 1 m/S 561 mmHg 88%
    11:00 -9°C° 0.2 mm 1 m/S 561 mmHg 88%
    12:00 -9°C° 0.2 mm 1 m/S 561 mmHg 87%
    13:00 -8°C° 0.2 mm 1 m/S 561 mmHg 86%
    14:00 -8°C° 0.2 mm 1 m/S 561 mmHg 87%
    15:00 -9°C° 0.2 mm 1 m/S 561 mmHg 87%
    16:00 -10°C° 0.2 mm 2 m/S 561 mmHg 88%
    17:00 -10°C° 0.1 mm 2 m/S 561 mmHg 85%
    18:00 -12°C° 0.1 mm 2 m/S 561 mmHg 81%
    19:00 -13°C° 0.1 mm 3 m/S 562 mmHg 78%
    20:00 -13°C° 0 mm 3 m/S 562 mmHg 76%
    21:00 -14°C° 0 mm 3 m/S 563 mmHg 74%
    22:00 -14°C° 0 mm 3 m/S 563 mmHg 72%
    23:00 -14°C° 0 mm 3 m/S 564 mmHg 73%

    14 Dezember, Samstag

    Zeit Temperatur Niederschläge Wind Luftdruck Luftfeuchtigkeit
    00:00 -15°C° 0 mm 3 m/S 564 mmHg 75%
    01:00 -15°C° 0 mm 3 m/S 565 mmHg 77%
    02:00 -14°C° 0 mm 2 m/S 565 mmHg 76%
    03:00 -14°C° 0 mm 2 m/S 565 mmHg 75%
    04:00 -14°C° 0 mm 2 m/S 566 mmHg 74%
    05:00 -14°C° 0 mm 2 m/S 567 mmHg 70%
    06:00 -13°C° 0 mm 2 m/S 567 mmHg 66%
    07:00 -13°C° 0 mm 2 m/S 568 mmHg 62%
    08:00 -9°C° 0 mm 1 m/S 569 mmHg 64%
    09:00 -8°C° 0 mm 1 m/S 570 mmHg 65%
    10:00 -6°C° 0 mm 1 m/S 571 mmHg 66%
    11:00 -4°C° 0 mm 1 m/S 572 mmHg 67%
    12:00 -3°C° 0 mm 1 m/S 573 mmHg 67%
    13:00 -2°C° 0 mm 1 m/S 573 mmHg 67%
    14:00 -3°C° 0 mm 1 m/S 573 mmHg 70%
    15:00 -4°C° 0 mm 1 m/S 573 mmHg 74%
    16:00 -6°C° 0 mm 1 m/S 573 mmHg 77%
    17:00 -6°C° 0 mm 1 m/S 573 mmHg 76%
    18:00 -7°C° 0 mm 1 m/S 573 mmHg 75%
    19:00 -7°C° 0 mm 1 m/S 574 mmHg 74%
    20:00 -7°C° 0 mm 1 m/S 574 mmHg 73%
    21:00 -7°C° 0 mm 1 m/S 574 mmHg 73%
    22:00 -7°C° 0 mm 1 m/S 574 mmHg 72%
    23:00 -7°C° 0 mm 1 m/S 574 mmHg 72%

    15 Dezember, Sonntag

    Zeit Temperatur Niederschläge Wind Luftdruck Luftfeuchtigkeit
    00:00 -7°C° 0 mm 1 m/S 574 mmHg 73%
    01:00 -8°C° 0 mm 1 m/S 574 mmHg 73%
    02:00 -8°C° 0 mm 1 m/S 574 mmHg 74%
    03:00 -8°C° 0 mm 1 m/S 574 mmHg 75%
    04:00 -8°C° 0 mm 1 m/S 574 mmHg 76%
    05:00 -8°C° 0 mm 1 m/S 574 mmHg 77%
    06:00 -8°C° 0 mm 1 m/S 574 mmHg 77%
    07:00 -9°C° 0 mm 1 m/S 575 mmHg 78%
    08:00 -7°C° 0 mm 1 m/S 575 mmHg 76%
    09:00 -6°C° 0 mm 1 m/S 576 mmHg 75%
    10:00 -4°C° 0 mm 1 m/S 577 mmHg 73%
    11:00 -3°C° 0 mm 1 m/S 578 mmHg 73%
    12:00 -2°C° 0 mm 1 m/S 578 mmHg 72%
    13:00 -1°C° 0 mm 1 m/S 578 mmHg 72%
    14:00 -2°C° 0 mm 1 m/S 578 mmHg 74%
    15:00 -5°C° 0 mm 0 m/S 578 mmHg 76%
    16:00 -6°C° 0 mm 0 m/S 577 mmHg 79%
    17:00 -6°C° 0 mm 0 m/S 577 mmHg 78%
    18:00 -7°C° 0 mm 0 m/S 578 mmHg 77%
    19:00 -7°C° 0 mm 1 m/S 578 mmHg 76%
    20:00 -7°C° 0 mm 1 m/S 578 mmHg 77%
    21:00 -8°C° 0 mm 1 m/S 578 mmHg 78%
    22:00 -8°C° 0 mm 1 m/S 579 mmHg 79%
    23:00 -8°C° 0 mm 1 m/S 579 mmHg 81%

    16 Dezember, Montag

    Zeit Temperatur Niederschläge Wind Luftdruck Luftfeuchtigkeit
    00:00 -8°C° 0 mm 1 m/S 579 mmHg 82%
    01:00 -8°C° 0 mm 1 m/S 579 mmHg 84%
    02:00 -8°C° 0 mm 1 m/S 579 mmHg 85%
    03:00 -8°C° 0 mm 1 m/S 579 mmHg 86%
    04:00 -8°C° 0 mm 1 m/S 579 mmHg 87%
    05:00 -8°C° 0 mm 1 m/S 579 mmHg 87%
    06:00 -8°C° 0 mm 1 m/S 579 mmHg 88%
    07:00 -7°C° 0 mm 1 m/S 579 mmHg 89%
    08:00 -7°C° 0 mm 1 m/S 580 mmHg 89%
    09:00 -6°C° 0 mm 1 m/S 580 mmHg 88%
    10:00 -4°C° 0 mm 1 m/S 580 mmHg 88%
    11:00 -4°C° 0 mm 1 m/S 580 mmHg 89%
    12:00 -3°C° 0 mm 1 m/S 580 mmHg 89%
    13:00 -3°C° 0 mm 1 m/S 580 mmHg 89%
    14:00 -3°C° 0 mm 1 m/S 580 mmHg 91%
    15:00 -3°C° 0 mm 1 m/S 580 mmHg 92%
    16:00 -4°C° 0 mm 1 m/S 580 mmHg 94%
    17:00 -4°C° 0 mm 1 m/S 580 mmHg 94%
    18:00 -4°C° 0 mm 1 m/S 580 mmHg 94%
    19:00 -4°C° 0 mm 1 m/S 579 mmHg 95%
    20:00 -4°C° 0 mm 1 m/S 580 mmHg 95%
    21:00 -4°C° 0 mm 1 m/S 580 mmHg 95%
    22:00 -4°C° 0 mm 1 m/S 580 mmHg 95%
    23:00 -4°C° 0 mm 1 m/S 580 mmHg 95%
    Mehr zeigen